When you browse on this site, cookies collect data to enhance your experience and personalize the content and advertising you see.
Visit our Privacy Policy to learn more. By continuing to use the site, you agree to this use of cookies and data.
  • In Romania
  • List of Countries
  • For 7 days
  • Water Temperature
  • Weather Map
  • Weather Widgets
  • user-avatar
    Login

    Hourly Weather Jambol

    Today, 15 October, Tuesday

    Time Temperature Precipitation Wind Pressure Humidity
    00:00 +15°C° 0 mm 1 mps 753 mmHg 88%
    01:00 +14°C° 0 mm 1 mps 753 mmHg 88%
    02:00 +14°C° 0 mm 1 mps 753 mmHg 88%
    03:00 +13°C° 0 mm 0 mps 753 mmHg 87%
    04:00 +13°C° 0 mm 0 mps 753 mmHg 86%
    05:00 +12°C° 0 mm 0 mps 752 mmHg 84%
    06:00 +13°C° 0 mm 0 mps 753 mmHg 81%
    07:00 +14°C° 0 mm 0 mps 753 mmHg 78%
    08:00 +15°C° 0 mm 0 mps 753 mmHg 75%
    09:00 +19°C° 0 mm 1 mps 753 mmHg 66%
    10:00 +21°C° 0 mm 1 mps 753 mmHg 56%
    11:00 +23°C° 0 mm 1 mps 753 mmHg 46%
    12:00 +24°C° 0 mm 1 mps 752 mmHg 42%
    13:00 +25°C° 0 mm 2 mps 752 mmHg 37%
    14:00 +27°C° 0 mm 2 mps 752 mmHg 32%
    15:00 +25°C° 0 mm 2 mps 751 mmHg 38%
    16:00 +24°C° 0 mm 2 mps 751 mmHg 44%
    17:00 +23°C° 0 mm 2 mps 751 mmHg 51%
    18:00 +20°C° 0 mm 2 mps 751 mmHg 62%
    19:00 +18°C° 0 mm 2 mps 751 mmHg 73%
    20:00 +16°C° 0 mm 2 mps 751 mmHg 84%
    21:00 +16°C° 0 mm 2 mps 751 mmHg 87%
    22:00 +16°C° 0 mm 2 mps 751 mmHg 89%
    23:00 +15°C° 0 mm 1 mps 751 mmHg 92%

    Tomorrow, 16 October, Wednesday

    Time Temperature Precipitation Wind Pressure Humidity
    00:00 +15°C° 0 mm 1 mps 751 mmHg 91%
    01:00 +15°C° 0 mm 1 mps 751 mmHg 90%
    02:00 +14°C° 0 mm 1 mps 751 mmHg 89%
    03:00 +14°C° 0 mm 1 mps 751 mmHg 89%
    04:00 +14°C° 0 mm 1 mps 751 mmHg 89%
    05:00 +14°C° 0 mm 1 mps 751 mmHg 89%
    06:00 +14°C° 0 mm 1 mps 751 mmHg 87%
    07:00 +15°C° 0 mm 1 mps 751 mmHg 85%
    08:00 +16°C° 0 mm 1 mps 752 mmHg 82%
    09:00 +19°C° 0 mm 1 mps 752 mmHg 74%
    10:00 +20°C° 0 mm 1 mps 752 mmHg 66%
    11:00 +22°C° 0 mm 1 mps 752 mmHg 57%
    12:00 +23°C° 0 mm 1 mps 751 mmHg 51%
    13:00 +25°C° 0 mm 2 mps 751 mmHg 45%
    14:00 +26°C° 0 mm 2 mps 751 mmHg 38%
    15:00 +25°C° 0 mm 2 mps 750 mmHg 42%
    16:00 +24°C° 0 mm 2 mps 750 mmHg 46%
    17:00 +23°C° 0 mm 2 mps 750 mmHg 49%
    18:00 +21°C° 0 mm 2 mps 750 mmHg 58%
    19:00 +19°C° 0 mm 2 mps 751 mmHg 66%
    20:00 +17°C° 0 mm 2 mps 751 mmHg 74%
    21:00 +17°C° 0 mm 2 mps 751 mmHg 78%
    22:00 +16°C° 0 mm 1 mps 751 mmHg 83%
    23:00 +16°C° 0 mm 1 mps 751 mmHg 87%

    Day after tomorrow, 17 October, Thursday

    Time Temperature Precipitation Wind Pressure Humidity
    00:00 +15°C° 0 mm 1 mps 751 mmHg 87%
    01:00 +15°C° 0 mm 1 mps 751 mmHg 86%
    02:00 +15°C° 0 mm 1 mps 751 mmHg 86%
    03:00 +15°C° 0 mm 1 mps 751 mmHg 85%
    04:00 +14°C° 0 mm 0 mps 751 mmHg 84%
    05:00 +14°C° 0 mm 0 mps 751 mmHg 83%
    06:00 +14°C° 0 mm 0 mps 751 mmHg 79%
    07:00 +15°C° 0 mm 0 mps 752 mmHg 75%
    08:00 +16°C° 0 mm 0 mps 752 mmHg 72%
    09:00 +20°C° 0 mm 1 mps 752 mmHg 62%
    10:00 +22°C° 0 mm 1 mps 752 mmHg 53%
    11:00 +24°C° 0 mm 1 mps 752 mmHg 44%
    12:00 +25°C° 0 mm 1 mps 752 mmHg 39%
    13:00 +26°C° 0 mm 2 mps 752 mmHg 35%
    14:00 +27°C° 0 mm 2 mps 751 mmHg 31%
    15:00 +26°C° 0 mm 2 mps 751 mmHg 35%
    16:00 +25°C° 0 mm 2 mps 751 mmHg 38%
    17:00 +23°C° 0 mm 2 mps 751 mmHg 42%
    18:00 +21°C° 0 mm 2 mps 751 mmHg 50%
    19:00 +19°C° 0 mm 2 mps 751 mmHg 57%
    20:00 +18°C° 0 mm 2 mps 751 mmHg 65%
    21:00 +18°C° 0 mm 1 mps 752 mmHg 67%
    22:00 +18°C° 0 mm 1 mps 752 mmHg 70%
    23:00 +18°C° 0 mm 1 mps 752 mmHg 73%

    18 October, Friday

    Time Temperature Precipitation Wind Pressure Humidity
    00:00 +16°C° 0 mm 1 mps 752 mmHg 74%
    01:00 +16°C° 0 mm 1 mps 752 mmHg 75%
    02:00 +16°C° 0 mm 1 mps 752 mmHg 76%
    03:00 +14°C° 0 mm 0 mps 752 mmHg 75%
    04:00 +14°C° 0 mm 0 mps 752 mmHg 75%
    05:00 +14°C° 0 mm 0 mps 752 mmHg 74%
    06:00 +15°C° 0 mm 0 mps 752 mmHg 70%
    07:00 +16°C° 0 mm 0 mps 752 mmHg 67%
    08:00 +16°C° 0 mm 0 mps 752 mmHg 63%
    09:00 +18°C° 0 mm 0 mps 752 mmHg 55%
    10:00 +23°C° 0 mm 1 mps 753 mmHg 46%
    11:00 +25°C° 0 mm 1 mps 753 mmHg 38%
    12:00 +26°C° 0 mm 1 mps 752 mmHg 35%
    13:00 +26°C° 0 mm 2 mps 752 mmHg 31%
    14:00 +27°C° 0 mm 2 mps 752 mmHg 28%
    15:00 +26°C° 0 mm 2 mps 752 mmHg 31%
    16:00 +25°C° 0 mm 2 mps 752 mmHg 35%
    17:00 +24°C° 0 mm 2 mps 752 mmHg 39%
    18:00 +21°C° 0 mm 2 mps 752 mmHg 44%
    19:00 +20°C° 0 mm 2 mps 752 mmHg 49%
    20:00 +19°C° 0 mm 1 mps 752 mmHg 55%
    21:00 +19°C° 0 mm 1 mps 752 mmHg 56%
    22:00 +18°C° 0 mm 1 mps 752 mmHg 58%
    23:00 +18°C° 0 mm 1 mps 752 mmHg 59%

    19 October, Saturday

    Time Temperature Precipitation Wind Pressure Humidity
    00:00 +16°C° 0 mm 1 mps 752 mmHg 61%
    01:00 +16°C° 0 mm 1 mps 752 mmHg 63%
    02:00 +16°C° 0 mm 1 mps 752 mmHg 65%
    03:00 +14°C° 0 mm 0 mps 752 mmHg 66%
    04:00 +14°C° 0 mm 0 mps 752 mmHg 68%
    05:00 +14°C° 0 mm 0 mps 752 mmHg 69%
    06:00 +15°C° 0 mm 0 mps 753 mmHg 66%
    07:00 +15°C° 0 mm 0 mps 753 mmHg 64%
    08:00 +16°C° 0 mm 0 mps 753 mmHg 61%
    09:00 +20°C° 0 mm 1 mps 753 mmHg 53%
    10:00 +22°C° 0 mm 1 mps 753 mmHg 46%
    11:00 +24°C° 0 mm 1 mps 753 mmHg 38%
    12:00 +25°C° 0 mm 2 mps 753 mmHg 35%
    13:00 +25°C° 0 mm 2 mps 753 mmHg 32%
    14:00 +26°C° 0 mm 2 mps 752 mmHg 29%
    15:00 +25°C° 0 mm 2 mps 752 mmHg 33%
    16:00 +24°C° 0 mm 2 mps 752 mmHg 37%
    17:00 +23°C° 0 mm 2 mps 752 mmHg 41%
    18:00 +20°C° 0 mm 2 mps 752 mmHg 49%
    19:00 +19°C° 0 mm 2 mps 752 mmHg 56%
    20:00 +17°C° 0 mm 2 mps 752 mmHg 64%
    21:00 +18°C° 0 mm 1 mps 753 mmHg 67%
    22:00 +16°C° 0 mm 1 mps 753 mmHg 70%
    23:00 +16°C° 0 mm 1 mps 753 mmHg 73%

    20 October, Sunday

    Time Temperature Precipitation Wind Pressure Humidity
    00:00 +15°C° 0 mm 1 mps 753 mmHg 76%
    01:00 +15°C° 0 mm 1 mps 753 mmHg 79%
    02:00 +14°C° 0 mm 0 mps 753 mmHg 81%
    03:00 +13°C° 0 mm 0 mps 753 mmHg 82%
    04:00 +13°C° 0 mm 0 mps 753 mmHg 83%
    05:00 +13°C° 0 mm 0 mps 753 mmHg 84%
    06:00 +13°C° 0 mm 0 mps 753 mmHg 81%
    07:00 +15°C° 0 mm 1 mps 753 mmHg 79%
    08:00 +16°C° 0 mm 1 mps 753 mmHg 76%
    09:00 +18°C° 0 mm 1 mps 753 mmHg 68%
    10:00 +20°C° 0 mm 1 mps 753 mmHg 61%
    11:00 +21°C° 0 mm 2 mps 753 mmHg 53%
    12:00 +23°C° 0 mm 2 mps 753 mmHg 48%
    13:00 +24°C° 0 mm 2 mps 753 mmHg 44%
    14:00 +25°C° 0 mm 2 mps 753 mmHg 39%
    15:00 +24°C° 0 mm 2 mps 753 mmHg 43%
    16:00 +23°C° 0 mm 2 mps 752 mmHg 47%
    17:00 +21°C° 0 mm 3 mps 752 mmHg 52%
    18:00 +19°C° 0 mm 2 mps 753 mmHg 60%
    19:00 +18°C° 0 mm 2 mps 753 mmHg 68%
    20:00 +16°C° 0 mm 2 mps 753 mmHg 76%
    21:00 +16°C° 0 mm 2 mps 753 mmHg 79%
    22:00 +15°C° 0 mm 1 mps 753 mmHg 81%
    23:00 +15°C° 0 mm 1 mps 754 mmHg 83%
    Show more